When you browse on this site, cookies collect data to enhance your experience and personalize the content and advertising you see.
Visit our Privacy Policy to learn more. By continuing to use the site, you agree to this use of cookies and data.
  • In Hungary
  • List of Countries
  • For 7 days
  • Water Temperature
  • Weather Map
  • News
  • Weather Widgets
  • user-avatar
    Login

    Hourly Weather Sergievskoe

    Today, 17 October, Thursday

    Time Temperature Precipitation Wind Pressure Humidity
    00:00 +15°C° 0 mm 4 mps 746 mmHg 70%
    01:00 +14°C° 0 mm 4 mps 746 mmHg 75%
    02:00 +14°C° 0 mm 4 mps 746 mmHg 80%
    03:00 +13°C° 0 mm 4 mps 747 mmHg 90%
    04:00 +13°C° 0 mm 5 mps 747 mmHg 92%
    05:00 +13°C° 0 mm 5 mps 747 mmHg 93%
    06:00 +13°C° 0 mm 6 mps 747 mmHg 95%
    07:00 +14°C° 0 mm 6 mps 747 mmHg 92%
    08:00 +14°C° 0 mm 7 mps 747 mmHg 90%
    09:00 +14°C° 0 mm 7 mps 747 mmHg 88%
    10:00 +15°C° 0 mm 7 mps 747 mmHg 80%
    11:00 +16°C° 0 mm 7 mps 747 mmHg 73%
    12:00 +18°C° 0 mm 7 mps 747 mmHg 66%
    13:00 +18°C° 0 mm 7 mps 747 mmHg 62%
    14:00 +20°C° 0 mm 7 mps 746 mmHg 58%
    15:00 +20°C° 0 mm 7 mps 746 mmHg 54%
    16:00 +19°C° 0 mm 6 mps 746 mmHg 58%
    17:00 +17°C° 0 mm 5 mps 746 mmHg 62%
    18:00 +17°C° 0 mm 4 mps 746 mmHg 66%
    19:00 +15°C° 0 mm 4 mps 746 mmHg 69%
    20:00 +15°C° 0 mm 4 mps 746 mmHg 73%
    21:00 +14°C° 0 mm 4 mps 746 mmHg 77%
    22:00 +14°C° 0 mm 4 mps 746 mmHg 79%
    23:00 +13°C° 0 mm 4 mps 745 mmHg 81%

    Tomorrow, 18 October, Friday

    Time Temperature Precipitation Wind Pressure Humidity
    00:00 +13°C° 0 mm 4 mps 745 mmHg 83%
    01:00 +12°C° 0 mm 4 mps 745 mmHg 86%
    02:00 +12°C° 0 mm 3 mps 745 mmHg 88%
    03:00 +11°C° 0 mm 3 mps 745 mmHg 90%
    04:00 +12°C° 0 mm 2 mps 745 mmHg 91%
    05:00 +12°C° 0 mm 2 mps 744 mmHg 92%
    06:00 +12°C° 0 mm 2 mps 744 mmHg 93%
    07:00 +13°C° 0 mm 2 mps 744 mmHg 85%
    08:00 +15°C° 0 mm 2 mps 744 mmHg 78%
    09:00 +17°C° 0 mm 2 mps 744 mmHg 70%
    10:00 +19°C° 0 mm 2 mps 744 mmHg 61%
    11:00 +21°C° 0 mm 2 mps 744 mmHg 51%
    12:00 +24°C° 0 mm 1 mps 744 mmHg 42%
    13:00 +25°C° 0 mm 1 mps 744 mmHg 40%
    14:00 +25°C° 0 mm 1 mps 743 mmHg 38%
    15:00 +26°C° 0 mm 1 mps 743 mmHg 35%
    16:00 +24°C° 0 mm 1 mps 743 mmHg 42%
    17:00 +21°C° 0 mm 2 mps 743 mmHg 48%
    18:00 +20°C° 0 mm 2 mps 743 mmHg 54%
    19:00 +19°C° 0 mm 2 mps 743 mmHg 56%
    20:00 +18°C° 0 mm 2 mps 743 mmHg 59%
    21:00 +19°C° 0 mm 1 mps 743 mmHg 61%
    22:00 +18°C° 0 mm 1 mps 743 mmHg 63%
    23:00 +18°C° 0 mm 1 mps 743 mmHg 65%

    Day after tomorrow, 19 October, Saturday

    Time Temperature Precipitation Wind Pressure Humidity
    00:00 +18°C° 0 mm 1 mps 743 mmHg 67%
    01:00 +16°C° 0 mm 1 mps 743 mmHg 67%
    02:00 +16°C° 0 mm 1 mps 743 mmHg 68%
    03:00 +16°C° 0 mm 1 mps 743 mmHg 69%
    04:00 +16°C° 0 mm 1 mps 743 mmHg 70%
    05:00 +15°C° 0 mm 1 mps 744 mmHg 71%
    06:00 +15°C° 0 mm 1 mps 744 mmHg 72%
    07:00 +18°C° 0 mm 1 mps 744 mmHg 66%
    08:00 +19°C° 0 mm 1 mps 744 mmHg 61%
    09:00 +20°C° 0 mm 1 mps 745 mmHg 55%
    10:00 +22°C° 0 mm 1 mps 745 mmHg 51%
    11:00 +23°C° 0 mm 1 mps 745 mmHg 46%
    12:00 +25°C° 0 mm 1 mps 745 mmHg 42%
    13:00 +25°C° 0 mm 1 mps 745 mmHg 41%
    14:00 +26°C° 0 mm 2 mps 745 mmHg 39%
    15:00 +26°C° 0 mm 2 mps 745 mmHg 38%
    16:00 +24°C° 0 mm 2 mps 745 mmHg 42%
    17:00 +23°C° 0 mm 2 mps 745 mmHg 46%
    18:00 +20°C° 0 mm 2 mps 745 mmHg 50%
    19:00 +19°C° 0 mm 2 mps 745 mmHg 51%
    20:00 +19°C° 0 mm 2 mps 745 mmHg 52%
    21:00 +18°C° 0 mm 2 mps 746 mmHg 54%
    22:00 +17°C° 0 mm 2 mps 746 mmHg 57%
    23:00 +17°C° 0 mm 2 mps 746 mmHg 60%

    20 October, Sunday

    Time Temperature Precipitation Wind Pressure Humidity
    00:00 +16°C° 0 mm 2 mps 746 mmHg 63%
    01:00 +16°C° 0 mm 2 mps 746 mmHg 65%
    02:00 +15°C° 0 mm 2 mps 746 mmHg 67%
    03:00 +15°C° 0 mm 2 mps 746 mmHg 69%
    04:00 +14°C° 0 mm 2 mps 746 mmHg 72%
    05:00 +14°C° 0 mm 2 mps 746 mmHg 74%
    06:00 +14°C° 0 mm 2 mps 746 mmHg 77%
    07:00 +14°C° 0 mm 3 mps 747 mmHg 73%
    08:00 +16°C° 0 mm 3 mps 747 mmHg 68%
    09:00 +17°C° 0 mm 4 mps 747 mmHg 64%
    10:00 +19°C° 0 mm 5 mps 747 mmHg 57%
    11:00 +20°C° 0 mm 5 mps 747 mmHg 50%
    12:00 +21°C° 0 mm 5 mps 747 mmHg 43%
    13:00 +22°C° 0 mm 5 mps 747 mmHg 41%
    14:00 +22°C° 0 mm 5 mps 747 mmHg 40%
    15:00 +22°C° 0 mm 6 mps 747 mmHg 39%
    16:00 +21°C° 0 mm 5 mps 747 mmHg 43%
    17:00 +19°C° 0 mm 4 mps 747 mmHg 47%
    18:00 +18°C° 0 mm 4 mps 747 mmHg 51%
    19:00 +17°C° 0 mm 4 mps 747 mmHg 53%
    20:00 +15°C° 0 mm 4 mps 747 mmHg 55%
    21:00 +15°C° 0 mm 4 mps 748 mmHg 57%
    22:00 +14°C° 0 mm 4 mps 748 mmHg 59%
    23:00 +14°C° 0 mm 4 mps 747 mmHg 61%

    21 October, Monday

    Time Temperature Precipitation Wind Pressure Humidity
    00:00 +13°C° 0 mm 4 mps 747 mmHg 62%
    01:00 +12°C° 0 mm 4 mps 747 mmHg 65%
    02:00 +12°C° 0 mm 4 mps 747 mmHg 68%
    03:00 +11°C° 0 mm 3 mps 747 mmHg 71%
    04:00 +11°C° 0 mm 4 mps 747 mmHg 73%
    05:00 +11°C° 0 mm 4 mps 747 mmHg 76%
    06:00 +10°C° 0 mm 4 mps 747 mmHg 79%
    07:00 +10°C° 0 mm 5 mps 748 mmHg 74%
    08:00 +13°C° 0 mm 5 mps 748 mmHg 69%
    09:00 +14°C° 0 mm 6 mps 748 mmHg 63%
    10:00 +15°C° 0 mm 6 mps 748 mmHg 59%
    11:00 +16°C° 0 mm 7 mps 748 mmHg 54%
    12:00 +18°C° 0 mm 7 mps 748 mmHg 49%
    13:00 +18°C° 0 mm 7 mps 747 mmHg 49%
    14:00 +18°C° 0 mm 7 mps 747 mmHg 49%
    15:00 +19°C° 0 mm 6 mps 747 mmHg 49%
    16:00 +17°C° 0 mm 6 mps 747 mmHg 53%
    17:00 +16°C° 0 mm 5 mps 747 mmHg 57%
    18:00 +15°C° 0 mm 5 mps 747 mmHg 61%
    19:00 +14°C° 0 mm 5 mps 747 mmHg 62%
    20:00 +14°C° 0 mm 5 mps 747 mmHg 62%
    21:00 +13°C° 0 mm 5 mps 747 mmHg 63%
    22:00 +12°C° 0 mm 5 mps 747 mmHg 66%
    23:00 +12°C° 0 mm 5 mps 747 mmHg 69%

    22 October, Tuesday

    Time Temperature Precipitation Wind Pressure Humidity
    00:00 +10°C° 0 mm 5 mps 747 mmHg 72%
    01:00 +11°C° 0 mm 4 mps 747 mmHg 75%
    02:00 +10°C° 0 mm 4 mps 746 mmHg 78%
    03:00 +10°C° 0 mm 4 mps 746 mmHg 81%
    04:00 +10°C° 0 mm 4 mps 746 mmHg 83%
    05:00 +8°C° 0 mm 4 mps 747 mmHg 85%
    06:00 +9°C° 0 mm 3 mps 747 mmHg 87%
    07:00 +10°C° 0 mm 4 mps 747 mmHg 82%
    08:00 +10°C° 0 mm 5 mps 747 mmHg 77%
    09:00 +12°C° 0 mm 5 mps 747 mmHg 72%
    10:00 +14°C° 0 mm 5 mps 747 mmHg 65%
    11:00 +15°C° 0 mm 6 mps 747 mmHg 59%
    12:00 +16°C° 0 mm 6 mps 747 mmHg 53%
    13:00 +17°C° 0 mm 6 mps 746 mmHg 52%
    14:00 +17°C° 0 mm 6 mps 746 mmHg 50%
    15:00 +17°C° 0 mm 6 mps 746 mmHg 49%
    16:00 +16°C° 0 mm 5 mps 745 mmHg 53%
    17:00 +15°C° 0 mm 4 mps 745 mmHg 57%
    18:00 +14°C° 0 mm 4 mps 745 mmHg 61%
    19:00 +13°C° 0 mm 4 mps 745 mmHg 63%
    20:00 +13°C° 0 mm 4 mps 745 mmHg 64%
    21:00 +12°C° 0 mm 4 mps 745 mmHg 66%
    22:00 +12°C° 0 mm 4 mps 745 mmHg 68%
    23:00 +12°C° 0 mm 3 mps 745 mmHg 70%
    Show more